Location: Great Nore
(51.4667°N, 0.8000°E)
Time: 11:09:32
(UTC+00:00)

Daily predictions for brighter satellites

Satellite Brightness Start Highest point End
(mag) Time Altitude Azimuth Time Altitude Azimuth Time Altitude Azimuth
USA 267 4.0 16:15:08 10° ENE 16:21:17 42° SE 16:27:24 10° SSW
SJ 16-02 2.7 16:19:37 10° NNW 16:23:49 46° WSW 16:28:00 10° S
H-2A R/B 3.0 16:21:39 10° ESE 16:25:38 23° ENE 16:29:32 10° N
USA 276 4.2 16:24:45 10° W 16:27:30 28° SSW 16:30:14 10° SE
USA 305 3.0 16:23:49 10° W 16:28:03 68° N 16:32:17 10° ENE
Cosmos 1763 Rocket 4.3 16:23:38 10° SSE 16:28:06 32° ESE 16:32:38 10° NE
Cosmos 1656 3.8 16:23:49 10° NNW 16:29:23 84° WSW 16:34:59 10° SSE
CZ-4B R/B 2.9 16:25:45 10° SSE 16:29:40 53° ENE 16:33:24 10° N
USA 229 DEB 4.0 16:26:48 10° NW 16:34:04 86° NE 16:41:51 10° SE
USA 229 4.0 16:26:53 10° NW 16:34:10 86° NE 16:41:56 10° SE
Cosmos 1937 Rocket 3.8 16:30:33 10° NNW 16:35:43 48° ENE 16:40:51 10° SE
Cosmos 1464 Rocket 4.1 16:30:08 10° S 16:36:28 72° E 16:42:51 10° NNE
Cosmos 1500 Rocket 3.7 16:34:26 10° N 16:38:49 54° ENE 16:43:08 10° SSE
Cosmos 1666 4.3 16:36:54 10° NNE 16:38:51 14° ENE 16:40:47 10° E
Cosmos 1461 4.3 16:35:22 10° W 16:39:01 29° NW 16:42:35 10° NNE
SL-16 R/B 4.2 16:34:03 10° N 16:39:09 28° NW 16:44:17 10° WSW
Nadezhda 4 Rocket 4.0 16:34:14 10° N 16:40:35 75° ENE 16:46:55 10° SSE
SL-24 R/B - RUBIN 2 3.8 16:36:37 10° NW 16:41:10 48° NE 16:45:25 10° ESE
SeaSat 1 3.4 16:37:26 10° NNE 16:42:07 43° NW 16:46:46 10° WSW
Cosmos 2322 Rocket 3.7 16:38:19 10° NNW 16:42:07 18° NNE 16:45:55 10° ENE
Cosmos 990 Rocket 4.0 16:37:30 10° NNW 16:42:45 87° ENE 16:47:55 10° SSE
ATLAS 2AS CENTAUR R/B 3.8 16:35:45 10° W 16:42:56 38° NNW 16:49:48 10° NE
Cosmos 1697 Rocket 2.6 16:39:23 10° NNW 16:45:02 72° ENE 16:50:39 10° SE
Cosmos 372 Rocket 4.4 16:41:57 10° NNW 16:46:53 40° NE 16:51:48 10° SE
FengYun 1-2 T 4.2 16:41:52 10° SSE 16:47:24 69° ENE 16:52:55 10° NNW
Cosmos 1271 Rocket 3.9 16:44:36 10° SSW 16:48:25 46° WNW 16:52:18 10° N
Sich 1 3.6 16:44:32 10° N 16:48:28 34° ENE 16:52:24 10° SE
Cosmos 1980 Rocket 2.5 16:43:46 10° NNW 16:49:16 47° NE 16:54:42 10° SE
NOSS 2-1 (C) 4.0 16:46:24 10° WSW 16:49:25 35° NW 16:52:42 10° NE
Cosmos 1805 Rocket 3.8 16:46:22 10° N 16:50:32 43° ENE 16:54:41 10° SSE
NOAA 6 4.1 16:45:45 10° SSE 16:50:47 60° ENE 16:55:51 10° N
Cosmos 2369 3.8 16:45:34 10° NNW 16:51:15 58° NE 16:56:53 10° SE
Cosmos 2221 2.5 16:48:18 10° S 16:52:35 87° W 16:56:56 10° N
CZ-4C R/B 3.0 16:48:46 10° NW 16:55:26 58° NE 17:03:25 10° ESE
Cosmos 1092 Rocket 4.1 16:50:09 10° N 16:56:28 61° ENE 17:02:43 10° SSE
USA 234 3.4 16:50:21 10° SE 16:56:55 80° SSW 17:03:29 10° WNW
Cosmos 2084 4.4 16:53:12 10° NW 16:57:22 53° SW 17:01:42 10° SSE
Cosmos 1842 Rocket 3.6 16:53:00 10° S 16:57:29 90° NW 17:02:00 10° N
NOSS 3-1 (A) 4.4 16:50:17 10° NW 16:57:36 73° SW 17:06:14 10° SSE
NOSS 2-1 (D) 4.2 16:55:50 10° W 16:58:47 31° NNW 17:01:53 11° NNE
USA 306 3.1 16:55:59 10° W 17:00:12 61° N 17:03:35 15° ENE
SL-16 R/B 3.3 16:55:45 10° NNW 17:00:19 24° NE 17:04:15 12° E
ISS -3.5 16:58:01 10° W 17:01:25 68° SSW 17:04:48 10° ESE
Cosmos 1812 4.2 16:59:00 10° SE 17:01:35 17° E 17:02:43 16° ENE
Cosmos 2237 Rocket 4.4 17:01:18 10° N 17:01:54 10° N 17:02:31 10° N
Meteor 1-25 Rocket 4.1 16:56:38 10° N 17:02:13 75° ENE 17:07:50 10° SSE
NOSS 2-2 (D) 4.1 16:58:30 10° NW 17:03:20 73° NE 17:10:05 10° SE
NOSS 2-2 (E) 4.3 16:58:41 10° NW 17:03:40 84° NE 17:10:43 10° SE
deb Chang Zheng 4 4.4 17:02:34 10° ESE 17:06:17 29° ENE 17:10:01 10° N
SMAP 3.0 17:02:05 10° SSE 17:06:44 78° ENE 17:11:25 10° NNW
Cosmos 2082 Rocket 3.1 17:02:18 10° SSE 17:07:04 28° ESE 17:10:43 15° NE
Meteor PRIRODA 4.3 17:03:51 10° S 17:07:25 57° WSW 17:11:01 10° NNW
Cosmos 1939 Rocket 2.9 17:03:50 10° SSE 17:07:57 86° ENE 17:12:03 10° NNW
Cosmos 858 Rocket 4.5 17:02:57 10° NNW 17:08:17 75° ENE 17:13:33 10° SSE
CORIOLIS 4.1 17:04:22 10° SSE 17:09:45 76° ENE 17:15:12 10° NNW
Cosmos 2333 Rocket 4.0 17:07:28 10° NNW 17:10:32 14° NNE 17:12:25 13° NE
Cosmos 44 Rocket 3.9 17:05:54 10° NNW 17:10:34 37° NE 17:14:23 14° E
Cosmos 2278 3.8 17:09:42 10° NNW 17:15:18 52° NE 17:20:51 10° SE
Cosmos 1602 3.6 17:11:57 10° N 17:15:49 77° ENE 17:19:41 10° SSE
CZ-4B DEB 4.1 17:10:38 10° SSE 17:16:08 75° ENE 17:21:38 10° NNW
Cosmos 1627 Rocket 4.4 17:11:46 10° N 17:17:59 73° ENE 17:24:06 10° SSE
USA 307 3.1 17:14:44 10° W 17:18:59 61° N 17:21:38 22° ENE
AQUARIUS 4.1 17:16:09 10° SSE 17:20:39 89° E 17:25:10 10° NNW
SL-16 R/B 4.4 17:18:49 10° NNW 17:20:39 11° NNW 17:22:30 10° N
Cosmos 540 Rocket 3.6 17:17:00 10° S 17:21:57 52° ESE 17:26:07 14° NE
H-2A R/B 4.5 17:25:03 12° NNE 17:25:03 12° NNE 17:25:34 10° NNE
Cosmos 2034 Rocket 4.1 17:17:18 10° SSW 17:23:26 77° W 17:29:39 10° N
COSMO-SKYMED 1 3.5 17:23:24 21° ENE 17:25:03 27° E 17:28:44 10° SSE
ARGOS 3.4 17:21:15 10° SE 17:26:21 43° ENE 17:31:27 10° N
Cosmos 2279 Rocket 4.4 17:21:32 10° SSE 17:27:15 40° E 17:32:58 10° NNE
COSMOS 2406 3.3 17:21:54 10° SSW 17:27:33 61° ESE 17:32:10 16° NE
SL-08 R/B 4.2 17:23:53 10° N 17:28:28 50° WNW 17:32:57 10° SW
Cosmos 1833 Rocket 2.6 17:23:14 10° SSW 17:28:50 77° ESE 17:33:41 14° NNE
Meteor 2-21 4.3 17:22:51 10° N 17:28:59 78° ENE 17:35:02 10° SSE
Cosmos 1782 2.8 17:26:33 10° S 17:30:27 56° E 17:33:48 14° NNE
ATLAS 5 CENTAUR R/B 2.8 17:21:31 10° NW 17:31:11 55° NNE 17:33:09 26° E
Cosmos 1633 Rocket 3.3 17:29:30 10° N 17:33:43 44° ENE 17:37:55 10° SSE
Cosmos 1818 3.7 17:29:17 10° NW 17:34:41 54° NE 17:38:50 17° ESE
ATLAS CENTAUR R/B 3.4 17:31:40 10° WNW 17:35:04 21° NNW 17:37:49 13° NNE
Cosmos 2219 Rocket 3.9 17:32:34 10° N 17:35:47 15° NNE 17:36:28 15° NNE
Cosmos 468 Rocket 4.1 17:31:22 10° SSW 17:36:32 79° WNW 17:41:28 12° NNE
YAOGAN 1 3.6 17:39:35 25° NE 17:39:35 25° NE 17:42:25 10° N
ERBS 3.3 17:37:18 10° WNW 17:40:16 33° N 17:41:01 29° NNE
GEOS 3 Rocket 3.8 17:37:58 21° ESE 17:41:19 50° NE 17:46:19 10° NW
CZ-2D R/B 3.2 17:37:34 10° SSE 17:41:25 86° W 17:45:16 10° NNW
USA 308 3.0 17:37:19 10° WNW 17:41:33 61° N 17:43:14 34° ENE
Cosmos 1634 Rocket 3.9 17:37:46 10° S 17:44:05 78° E 17:50:27 10° NNE
SJ-11-01 4.3 17:39:34 10° SSE 17:44:13 56° ENE 17:48:52 10° N
CZ-2C R/B 2.8 17:40:35 16° NNE 17:44:33 44° E 17:49:28 10° S
COSMOS 2455 3.0 17:38:52 10° SSW 17:44:44 57° ESE 17:48:14 25° NE
Cosmos 1500 3.2 17:41:35 10° NNW 17:45:21 77° W 17:49:04 10° S
PAYLOAD B 4.3 17:40:21 10° SSE 17:45:58 84° WSW 17:51:37 10° NNW
Cosmos 2026 Rocket 4.1 17:40:38 10° NNW 17:46:47 76° W 17:52:50 10° S
CZ-4B R/B 3.0 17:43:05 10° SSE 17:48:28 76° ENE 17:53:49 10° NNW
Lacrosse 5 rocket 1.2 17:45:28 10° WNW 17:49:20 67° NNE 17:50:36 41° E
Cosmos 1151 Rocket 3.1 17:45:19 10° S 17:49:29 50° E 17:51:27 28° NE
Okean O Rocket 1.6 17:48:06 10° SSE 17:52:30 64° ENE 17:56:56 10° N
CZ-4 R/B 3.3 17:59:39 16° N 17:59:39 16° N 18:00:41 10° N
Cosmos 1666 Rocket 3.5 17:55:08 10° N 17:59:37 88° W 18:04:02 10° S
Cosmos 2208 Rocket 4.5 17:55:43 10° S 18:00:44 40° ESE 18:01:40 37° E
Meteor 1-11 Rocket 4.0 17:56:13 10° N 18:01:34 44° ENE 18:05:45 16° SE
CZ-4 R/B 4.3 17:57:42 10° SSE 18:01:49 72° ENE 18:05:57 10° N
Cosmos 1470 Rocket 3.6 17:58:27 10° N 18:02:49 52° ENE 18:07:11 10° SSE
Cosmos 2150 Rocket 4.1 17:57:49 10° NNW 18:02:52 51° ENE 18:04:48 34° ESE
H-2A R/B 2.4 17:59:33 10° S 18:04:41 65° WSW 18:09:42 10° NNW
USA 267 3.2 18:01:04 29° ENE 18:04:42 84° NNW 18:11:15 10° WSW
Cosmos 1655 Rocket 4.1 17:58:29 10° N 18:04:49 57° ENE 18:11:04 10° SSE
Meteor 1-26 Rocket 4.5 17:59:50 10° SSW 18:05:50 80° WNW 18:11:56 10° N
Cosmos 1328 Rocket 3.6 18:02:41 10° S 18:07:01 55° E 18:07:30 51° ENE
Cosmos 2360 Rocket 3.0 18:02:16 10° NNW 18:07:10 31° NE 18:07:10 31° NE
Landsat 5 4.1 18:08:42 38° SE 18:08:42 38° SE 18:11:36 10° S
USA 305 2.8 18:03:58 10° WNW 18:08:12 68° N 18:08:46 59° ENE
Cosmos 1763 Rocket 4.4 18:04:56 10° SW 18:09:47 44° WNW 18:13:56 14° NNE
SKYMED 2 3.4 18:12:01 43° NNE 18:13:22 75° ESE 18:17:42 10° S
Cosmos 1666 3.0 18:11:07 10° NNW 18:14:49 64° W 18:18:29 10° S
Cosmos 2180 Rocket 4.4 18:09:36 10° S 18:15:54 68° E 18:22:07 10° NNE
Cosmos 841 Rocket 3.5 18:10:55 10° SSW 18:16:04 77° WNW 18:18:54 27° NNE
COSMOS 2428 4.3 18:12:33 10° NNW 18:15:41 18° NNE 18:15:41 18° NNE
Feng Yun 1-1 Rocket 4.2 18:12:04 10° SSE 18:17:57 73° ENE 18:23:48 10° NNW
Meteor 2-8 Rocket 4.3 18:13:21 10° S 18:19:27 70° E 18:25:36 10° NNE
ATLAS CENTAUR R/B 2.1 18:11:57 10° WSW 18:19:58 83° NNW 18:20:43 61° NE
Cosmos 1125 Rocket 3.4 18:15:47 10° NNW 18:21:01 65° ENE 18:22:14 49° ESE
Cosmos 2322 Rocket 2.2 18:21:51 10° NNW 18:27:29 56° NE 18:27:49 55° ENE
NOSS 3-4 (A) 4.3 18:27:05 10° NW 18:33:10 38° NNE 18:33:59 37° NE
Cosmos 1980 Rocket 3.6 18:28:00 10° NW 18:33:12 38° WSW 18:38:20 10° S
NOSS 3-4 (C) 4.3 18:27:11 10° NW 18:33:15 38° NNE 18:34:03 37° NE
SL-08 RB Rocket 3.8 18:31:09 10° S 18:35:48 75° WSW 18:40:25 10° NNW
ATLAS 2AS CENTAUR R/B 3.7 18:29:05 10° NW 18:35:50 33° N 18:37:26 30° NNE
Cosmos 1812 3.6 18:33:15 10° SSW 18:36:59 47° WNW 18:37:47 40° NW
ISS -1.5 18:35:11 10° W 18:37:51 21° SW 18:37:58 21° SSW
USA 306 3.3 18:36:04 10° WNW 18:39:35 59° NW 18:39:35 59° NW
CZ-4C R/B 3.6 18:37:17 10° NW 18:44:15 55° SW 18:52:21 10° SSE
SL-16 R/B 2.1 18:39:31 10° NNW 18:45:15 88° ENE 18:46:11 64° SSE
Cosmos 2237 Rocket 4.3 18:45:24 10° N 18:47:00 14° N 18:47:00 14° N
Cosmos 2082 Rocket 2.6 18:45:12 10° SW 18:50:49 60° NW 18:52:35 41° N
Cosmos 44 Rocket 3.9 18:47:30 10° NW 18:52:18 52° WSW 18:53:10 46° SSW
Cosmos 2333 Rocket 3.5 18:51:14 10° NNW 18:54:26 28° N 18:54:26 28° N
USA 307 4.1 18:54:50 10° WNW 18:57:40 41° WNW 18:57:40 41° WNW
COSMO-SKYMED 1 3.8 19:00:37 37° NW 19:01:21 40° WNW 19:05:24 10° SW
Cosmos 1833 Rocket 4.4 19:08:36 10° W 19:13:22 27° NW 19:15:24 22° N
YAOGAN 1 4.5 19:16:44 25° NW 19:16:44 25° NW 19:18:50 10° NNW
ATLAS CENTAUR R/B 4.1 19:12:37 10° NW 19:13:56 14° NNW 19:13:56 14° NNW
GEOS 3 Rocket 4.4 19:19:06 46° SW 19:19:25 46° SW 19:24:26 10° NW
Cosmos 2219 Rocket 3.9 19:15:56 10° NNW 19:18:11 23° N 19:18:11 23° N
CZ-2C R/B 4.1 19:22:06 21° NNW 19:24:45 33° WNW 19:29:19 10° SW
Lacrosse 5 rocket 3.8 19:24:42 10° WNW 19:26:13 20° W 19:26:13 20° W
Okean O Rocket 4.3 19:26:12 10° SW 19:29:16 18° W 19:32:21 10° NW
COSMOS 2455 3.8 19:25:16 10° WSW 19:30:57 41° NW 19:31:23 40° NNW
BREEZE-M DEB (TANK) 4.5 19:27:52 10° SW 19:44:57 58° S 19:44:57 58° S
USA 267 3.8 19:48:25 52° NW 19:48:25 52° NW 19:53:51 10° W
Cosmos 2360 Rocket 3.7 19:46:07 10° NW 19:48:57 30° NW 19:48:57 30° NW
Cosmos 2322 Rocket 4.0 20:06:19 10° NW 20:09:40 27° WNW 20:09:40 27° WNW
ATLAS 2AS CENTAUR R/B 4.2 20:21:01 10° NW 20:24:52 31° NNW 20:24:52 31° NNW
